Weather History for KONM - January, 2014

Change the Weather History Date:

Saturday, January 4, 2014

  Actual Average Record
Temperature  
Mean Temperature 46 °F -  
Max Temperature 65 °F 46 °F 65 °F (2014)
Min Temperature 26 °F 16 °F 10 °F (2015)
Degree Days  
Heating Degree Days 20    
Moisture  
Dew Point 18 °F    
Average Humidity 43    
Maximum Humidity 78    
Minimum Humidity 14    
Precipitation  
Precipitation 0.00 in - - ()
Sea Level Pressure  
Sea Level Pressure 29.89 in    
Wind  
Wind Speed 6 mph (WSW)    
Max Wind Speed 23 mph    
Max Gust Speed 37 mph    
Visibility 10 miles    
Events      
Averages and records for this station are not official NWS values.
T = Trace of Precipitation, MM = Missing Value Source: NWS Daily Summary

Daily Weather History Graph

Daily Weather History Graph

Search for Another Location

Airport or City:

Trip Planner

Search our weather history database for the weather conditions in past years. The results will help you decide how hot, cold, wet, or windy it might be!

Date:

Astronomy

Jan. 04, 2014 Rise Set
Actual Time 7:13 AM MST 5:11 PM MST
Civil Twilight 6:46 AM MST 5:39 PM MST
Nautical Twilight 6:14 AM MST 6:10 PM MST
Astronomical Twilight 5:44 AM MST 6:40 PM MST
Moon 9:32 AM MST (1/4) 9:22 PM MST (1/4)
Length of Visible Light 10h 53m
Length of Day
9h 58m
Waxing Crescent, 16% of the Moon is Illuminated
Jan 4
Waxing Crescent
Jan 7
First Quarter
Jan 15
Full
Jan 23
Last Quarter
Jan 30
New

Hourly Weather History & Observations

Time (MST) Temp. Windchill Dew Point Humidity Pressure Visibility Wind Dir Wind Speed Gust Speed Precip Events Conditions
12:15 AM 30.7 °F - 21.0 °F 67% 29.95 in 10.0 mi Calm Calm - N/A   Clear
12:35 AM 31.8 °F 25.4 °F 21.7 °F 66% 29.94 in 10.0 mi WSW 6.9 mph - N/A   Clear
12:55 AM 31.3 °F 25.6 °F 21.4 °F 67% 29.94 in 10.0 mi WSW 5.8 mph - N/A   Clear
1:15 AM 32.7 °F 26.4 °F 21.9 °F 64% 29.93 in 10.0 mi WSW 6.9 mph - N/A   Clear
1:35 AM 32.2 °F 25.8 °F 21.6 °F 65% 29.93 in 10.0 mi SW 6.9 mph - N/A   Clear
1:55 AM 34.3 °F - 22.3 °F 61% 29.94 in 10.0 mi Calm Calm - N/A   Clear
2:15 AM 31.8 °F 28.5 °F 21.0 °F 64% 29.93 in 10.0 mi SW 3.5 mph - N/A   Clear
2:35 AM 31.5 °F 28.1 °F 21.4 °F 66% 29.94 in 10.0 mi South 3.5 mph - N/A   Clear
2:55 AM 31.6 °F 27.0 °F 21.4 °F 66% 29.93 in 10.0 mi SSW 4.6 mph - N/A   Clear
3:15 AM 29.5 °F - 20.7 °F 70% 29.93 in 10.0 mi Calm Calm - N/A   Clear
3:35 AM 31.3 °F 26.6 °F 21.4 °F 67% 29.93 in 10.0 mi SW 4.6 mph - N/A   Clear
3:55 AM 31.1 °F 24.5 °F 21.4 °F 67% 29.92 in 10.0 mi SSW 6.9 mph - N/A   Clear
4:15 AM 29.1 °F 24.1 °F 21.0 °F 72% 29.93 in 10.0 mi NNW 4.6 mph - N/A   Clear
4:35 AM 28.2 °F - 20.7 °F 73% 29.92 in 10.0 mi Calm Calm - N/A   Clear
4:55 AM 28.4 °F 22.2 °F 20.8 °F 73% 29.92 in 10.0 mi West 5.8 mph - N/A   Clear
5:15 AM 29.7 °F 24.7 °F 20.8 °F 70% 29.92 in 10.0 mi SSW 4.6 mph - N/A   Clear
5:35 AM 28.2 °F 22.0 °F 20.7 °F 73% 29.91 in 10.0 mi SSE 5.8 mph - N/A   Clear
5:55 AM 27.7 °F - 21.0 °F 76% 29.91 in 10.0 mi Calm Calm - N/A   Clear
6:15 AM 27.9 °F 22.6 °F 20.5 °F 74% 29.92 in 10.0 mi WSW 4.6 mph - N/A   Clear
6:35 AM 28.6 °F 23.5 °F 20.7 °F 72% 29.92 in 10.0 mi SSW 4.6 mph - N/A   Clear
6:55 AM 29.1 °F 25.4 °F 20.7 °F 71% 29.92 in 10.0 mi SW 3.5 mph - N/A   Clear
7:15 AM 30.6 °F - 21.2 °F 68% 29.92 in 10.0 mi Calm Calm - N/A   Clear
7:35 AM 27.1 °F - 20.5 °F 76% 29.93 in 10.0 mi Calm Calm - N/A   Clear
7:55 AM 26.6 °F 20.0 °F 20.7 °F 78% 29.93 in 10.0 mi West 5.8 mph - N/A   Clear
8:15 AM 29.3 °F 25.6 °F 21.7 °F 73% 29.94 in 10.0 mi East 3.5 mph - N/A   Clear
8:35 AM 32.7 °F - 22.5 °F 66% 29.93 in 10.0 mi Calm Calm - N/A   Clear
8:55 AM 35.2 °F - 22.8 °F 61% 29.93 in 10.0 mi Calm Calm - N/A   Clear
9:15 AM 38.7 °F - 23.5 °F 55% 29.94 in 10.0 mi Calm Calm - N/A   Clear
9:35 AM 42.4 °F 40.7 °F 21.4 °F 43% 29.94 in 10.0 mi SSE 3.5 mph - N/A   Clear
9:55 AM 43.7 °F 39.7 °F 21.4 °F 41% 29.94 in 10.0 mi SE 6.9 mph - N/A   Clear
10:15 AM 44.8 °F 41.6 °F 21.2 °F 39% 29.93 in 10.0 mi SSE 5.8 mph - N/A   Clear
10:35 AM 46.4 °F 42.9 °F 21.6 °F 37% 29.92 in 10.0 mi South 6.9 mph - N/A   Clear
10:55 AM 48.2 °F - 21.2 °F 34% 29.89 in 10.0 mi SSE 10.4 mph - N/A   Clear
11:15 AM 49.8 °F - 21.2 °F 32% 29.88 in 10.0 mi SSE 10.4 mph - N/A   Clear
11:35 AM 52.0 °F - 21.7 °F 31% 29.87 in 10.0 mi South 8.1 mph - N/A   Clear
11:55 AM 52.7 °F - 21.9 °F 30% 29.85 in 10.0 mi South 8.1 mph - N/A   Clear
12:15 PM 57.2 °F - 19.9 °F 24% 29.83 in 10.0 mi SSE 9.2 mph - N/A   Clear
12:35 PM 59.2 °F - 17.1 °F 19% 29.81 in 10.0 mi SSW 11.5 mph - N/A   Clear
12:55 PM 59.9 °F - 18.9 °F 20% 29.80 in 10.0 mi SSE 12.7 mph - N/A   Clear
1:15 PM 60.8 °F - 18.3 °F 19% 29.79 in 10.0 mi SSE 10.4 mph - N/A   Clear
1:35 PM 61.7 °F - 18.7 °F 19% 29.77 in 10.0 mi ESE 18.4 mph 24.2 mph N/A   Clear
1:55 PM 63.0 °F - 18.1 °F 18% 29.77 in 10.0 mi SE 11.5 mph 16.1 mph N/A   Clear
2:15 PM 64.9 °F - 16.9 °F 16% 29.76 in 10.0 mi WSW 12.7 mph 19.6 mph N/A   Clear
2:35 PM 65.1 °F - 16.9 °F 16% 29.76 in 10.0 mi SW 5.8 mph - N/A   Clear
2:55 PM 65.5 °F - 17.2 °F 16% 29.76 in 10.0 mi SSW 9.2 mph - N/A   Clear
3:15 PM 65.5 °F - 16.7 °F 15% 29.75 in 10.0 mi SW 9.2 mph - N/A   Clear
3:35 PM 65.3 °F - 15.6 °F 15% 29.76 in 10.0 mi WNW 11.5 mph - N/A   Clear
3:55 PM 64.2 °F - 13.8 °F 14% 29.75 in 10.0 mi West 10.4 mph - N/A   Clear
4:15 PM 63.0 °F - 14.9 °F 15% 29.75 in 10.0 mi West 9.2 mph 17.3 mph N/A   Clear
4:35 PM 62.1 °F - 15.1 °F 16% 29.76 in 10.0 mi West 9.2 mph - N/A   Clear
4:55 PM 59.9 °F - 14.9 °F 17% 29.77 in 10.0 mi WNW 16.1 mph 21.9 mph N/A   Clear
5:15 PM 60.4 °F - 13.5 °F 16% 29.76 in 10.0 mi WNW 21.9 mph 26.5 mph N/A   Clear
5:35 PM 59.5 °F - 13.6 °F 17% 29.77 in 10.0 mi West 19.6 mph 27.6 mph N/A   Clear
5:55 PM 59.0 °F - 13.8 °F 17% 29.78 in 10.0 mi WNW 15.0 mph 20.7 mph N/A   Clear
6:15 PM 59.0 °F - 14.7 °F 18% 29.79 in 10.0 mi WNW 20.7 mph 33.4 mph N/A   Clear
6:35 PM 57.7 °F - 16.2 °F 20% 29.81 in 10.0 mi WNW 18.4 mph 25.3 mph N/A   Clear
6:55 PM 55.4 °F - 16.2 °F 21% 29.83 in 10.0 mi North 10.4 mph 16.1 mph N/A   Clear
7:15 PM 49.6 °F - 18.0 °F 29% 29.88 in 10.0 mi North 23.0 mph 36.8 mph N/A   Clear
7:35 PM 45.5 °F 37.8 °F 18.5 °F 34% 29.91 in 10.0 mi North 19.6 mph 28.8 mph N/A   Clear
7:55 PM 42.6 °F 34.0 °F 18.1 °F 37% 29.92 in 10.0 mi North 19.6 mph 32.2 mph N/A   Clear
8:15 PM 41.2 °F 33.7 °F 18.1 °F 40% 29.94 in 10.0 mi North 13.8 mph 20.7 mph N/A   Clear
8:35 PM 40.1 °F 34.7 °F 17.4 °F 40% 29.96 in 10.0 mi North 8.1 mph - N/A   Clear
8:55 PM 39.2 °F 32.5 °F 16.2 °F 39% 29.98 in 10.0 mi North 10.4 mph 17.3 mph N/A   Clear
9:15 PM 38.5 °F 32.7 °F 14.9 °F 38% 29.99 in 10.0 mi North 8.1 mph 16.1 mph N/A   Clear
9:35 PM 38.3 °F 30.9 °F 12.7 °F 35% 30.00 in 10.0 mi North 11.5 mph 17.3 mph N/A   Clear
9:55 PM 37.4 °F 29.8 °F 11.8 °F 35% 30.00 in 10.0 mi North 11.5 mph - N/A   Clear
10:15 PM 36.1 °F 32.3 °F 11.3 °F 36% 30.01 in 10.0 mi North 4.6 mph - N/A   Clear
10:35 PM 34.0 °F 28.0 °F 11.8 °F 40% 30.01 in 10.0 mi North 6.9 mph - N/A   Clear
10:55 PM 35.8 °F 29.4 °F 8.6 °F 32% 30.02 in 10.0 mi North 8.1 mph - N/A   Clear
11:15 PM 34.9 °F 27.7 °F 7.2 °F 31% 30.04 in 10.0 mi North 9.2 mph - N/A   Clear
11:35 PM 34.9 °F 26.6 °F 2.8 °F 26% 30.05 in 10.0 mi NNE 11.5 mph - N/A   Clear
11:55 PM 33.6 °F 25.0 °F 4.1 °F 29% 30.05 in 10.0 mi NNE 11.5 mph - N/A   Scattered Clouds